DateTimeUTC,F1_A11,F1_S11,BsB_S11,BsG_S11,BsR_S11,BbsB_S11,BbsG_S11,BbsR_S11,BaB_A11,BaG_A11,BaR_A11,Tu_S11,T_S11,Uu_S11,U_S11,P_S11,T1_A11
2021-07-12T03:00:00Z,00000200,20000000,,,,,,,-000.03,0000.23,0000.18,18.6,25.2,09.1,06.1,0673.7,31.0
2021-07-12T03:01:00Z,00000200,20000000,,,,,,,0000.52,0000.11,0000.07,18.6,25.2,09.1,06.1,0673.7,31.0
2021-07-12T03:02:00Z,00000200,20000000,,,,,,,0000.10,-000.16,-000.20,18.6,25.2,09.1,06.1,0673.7,31.0
2021-07-12T03:03:00Z,00000200,60000000,,,,,,,0000.23,0000.33,0000.28,18.6,25.2,09.1,06.1,0673.7,31.0
2021-07-12T03:04:00Z,00000200,40000000,0001.41,0000.46,0000.55,0000.55,0000.01,-000.19,-000.16,-000.21,0000.10,18.6,25.0,09.7,06.6,0674.6,31.0
2021-07-12T03:05:00Z,00000200,00000000,0002.30,0000.97,0000.63,-000.30,0000.61,0000.39,0000.25,0000.50,0000.30,18.7,24.9,09.8,06.7,0674.7,31.0
2021-07-12T03:06:00Z,00000200,00000000,0001.84,0000.96,0000.35,0000.43,0000.22,0000.13,0000.28,-000.30,0000.01,18.7,24.9,09.8,06.7,0674.7,31.0
2021-07-12T03:07:00Z,00000200,00000000,0001.70,0000.51,0000.44,0000.42,0000.02,0000.07,-000.28,0000.16,0000.14,18.7,24.9,09.7,06.6,0674.7,31.0
2021-07-12T03:08:00Z,00000200,00000000,0001.55,0000.73,0000.65,-000.27,0000.39,0000.36,0000.13,-000.29,-000.48,18.7,24.9,09.7,06.6,0674.7,31.0
2021-07-12T03:09:00Z,00000200,00000000,0001.81,0000.69,0000.39,-000.24,0000.32,0000.22,-000.14,0000.14,0000.17,18.7,24.9,09.5,06.5,0674.7,31.0
2021-07-12T03:10:00Z,00000200,00000000,0001.14,0000.89,0000.27,-000.27,0000.26,0000.31,-000.12,-000.13,-000.25,18.6,24.9,09.2,06.3,0674.7,31.0
2021-07-12T03:11:00Z,00000200,00000000,0001.33,0000.59,0000.20,0000.34,0000.08,-000.17,-000.26,-000.02,0000.17,18.6,24.9,08.9,06.1,0674.7,31.0
2021-07-12T03:12:00Z,00000200,00000000,0001.83,0000.80,0000.57,-000.41,0000.11,-000.12,-000.20,-000.10,-000.11,18.6,24.9,08.6,05.9,0674.7,31.0
2021-07-12T03:13:00Z,00000200,00000000,0001.93,0000.48,0000.36,0000.49,0000.06,-000.12,0000.50,0000.28,0000.25,18.6,24.8,08.6,05.9,0674.6,31.0
2021-07-12T03:14:00Z,00000200,00000000,0001.90,0000.95,0000.24,-000.50,0000.20,0000.08,0000.49,0000.28,0000.11,18.6,24.8,09.1,06.3,0674.6,31.0
2021-07-12T03:15:00Z,00000200,00000000,0001.50,0000.78,0000.33,0000.10,0000.07,0000.01,0000.74,0000.89,0000.82,18.6,24.8,09.7,06.6,0674.6,31.0
2021-07-12T03:16:00Z,00000200,00000000,0001.04,0000.95,0000.40,0000.25,0000.24,0000.08,0000.01,0000.03,-000.12,18.6,24.8,10.2,06.9,0674.6,31.0
2021-07-12T03:17:00Z,00000200,00000000,0002.14,0001.00,0000.37,0000.01,0000.01,0000.18,0000.13,-000.17,0000.18,18.6,24.8,10.2,07.0,0674.6,31.0
2021-07-12T03:18:00Z,00000200,00000000,0001.61,0000.71,0000.43,0000.30,0000.28,0000.27,0000.16,0000.29,0000.10,18.6,24.8,10.3,07.0,0674.6,31.0
2021-07-12T03:19:00Z,00000200,00000000,0002.25,0000.63,0000.41,0000.00,0000.33,0000.32,-000.24,-000.33,0000.08,18.6,24.8,10.1,06.9,0674.6,31.0
2021-07-12T03:20:00Z,00000200,00000000,0001.89,0000.51,0000.59,-000.11,0000.21,0000.22,0000.14,0000.30,-000.12,18.7,24.9,09.9,06.8,0674.6,31.0
2021-07-12T03:21:00Z,00000200,00000000,0001.56,0000.87,0000.59,0000.70,0000.41,0000.01,-000.26,-000.26,-000.15,18.7,24.9,09.9,06.8,0674.6,31.0
2021-07-12T03:22:00Z,00000200,00000000,0001.59,0000.65,0000.27,0000.45,0000.15,0000.15,0000.75,0000.72,0000.68,18.8,24.9,10.0,06.9,0674.6,31.0
2021-07-12T03:23:00Z,00000200,00000000,0002.09,0001.15,0000.31,0000.43,0000.15,0000.21,-000.14,-000.03,-000.15,18.9,25.0,10.3,07.1,0674.6,31.1
2021-07-12T03:24:00Z,00000200,00000000,0001.79,0001.12,0000.21,0000.33,0000.14,0000.10,0000.15,0000.01,-000.06,18.9,25.0,10.1,07.0,0674.6,31.1
2021-07-12T03:25:00Z,00000200,00000000,0001.92,0000.63,0000.35,0000.11,0000.03,0000.32,-000.02,0000.17,-000.09,18.8,24.9,10.0,06.9,0674.7,31.0
2021-07-12T03:26:00Z,00000200,00000000,0001.07,0000.87,0000.33,0000.05,0000.33,0000.21,0000.15,-000.25,0000.35,18.8,24.9,10.1,07.0,0674.7,31.0
2021-07-12T03:27:00Z,00000200,00000000,0000.72,0000.77,0000.56,0000.28,-000.03,-000.18,-000.05,0000.29,0000.42,18.8,24.9,10.1,07.0,0674.7,31.0
2021-07-12T03:28:00Z,00000200,00000000,0002.13,0000.79,0000.25,0000.31,0000.10,-000.15,0000.25,-000.02,-000.05,18.8,24.9,10.1,06.9,0674.7,31.0
2021-07-12T03:29:00Z,00000200,00000000,0001.34,0000.52,0000.40,0000.67,0000.11,-000.00,0000.17,0000.05,-000.12,18.8,24.9,10.1,06.9,0674.7,31.0
2021-07-12T03:30:00Z,00000200,00000000,0001.14,0000.95,0000.47,-000.35,0000.12,0000.09,0000.25,0000.30,0000.00,18.8,24.9,10.1,07.0,0674.7,31.0
2021-07-12T03:31:00Z,00000200,00000000,0001.35,0000.69,0000.65,-000.11,-000.09,0000.27,0000.05,0000.57,0000.23,18.8,24.9,10.1,06.9,0674.7,31.0
2021-07-12T03:32:00Z,00000200,00000000,0002.18,0001.15,0000.32,-000.18,0000.13,0000.28,-000.13,-000.35,0000.17,18.8,24.9,10.2,07.0,0674.7,31.0
2021-07-12T03:33:00Z,00000200,00000000,0000.63,0000.65,0000.41,0000.09,-000.01,0000.04,0000.40,0000.22,-000.13,18.7,24.9,10.1,07.0,0674.7,31.0
2021-07-12T03:34:00Z,00000200,00000000,0002.28,0000.68,0000.50,-000.16,-000.06,0000.10,-000.17,-000.04,-000.05,18.8,24.9,10.1,07.0,0674.7,31.0
2021-07-12T03:35:00Z,00000200,00000000,0001.53,0000.60,0000.34,0000.35,0000.03,-000.05,-000.09,-000.32,0000.19,18.8,24.9,10.0,06.9,0674.7,31.0
2021-07-12T03:36:00Z,00000200,00000000,0001.97,0000.62,0000.36,0000.26,0000.07,-000.11,0000.15,0000.24,0000.07,18.8,24.9,10.1,06.9,0674.7,31.0
2021-07-12T03:37:00Z,00000200,00000000,0001.97,0000.85,0000.42,0000.35,0000.24,-000.03,0000.14,0000.15,-000.06,18.9,24.9,10.0,06.9,0674.7,31.0
2021-07-12T03:38:00Z,00000200,00000000,0002.15,0000.71,0000.36,0000.24,-000.01,0000.02,0000.39,0000.22,0000.09,18.9,25.0,10.1,06.9,0674.7,31.0
2021-07-12T03:39:00Z,00000200,00000000,0001.73,0000.73,0000.48,0000.17,-000.03,0000.32,-000.38,-000.01,0000.13,18.9,25.0,10.1,07.0,0674.7,31.0
2021-07-12T03:40:00Z,00000200,00000000,0001.51,0000.86,0000.37,0000.23,-000.04,-000.15,0000.31,0000.18,0000.00,18.8,24.9,10.1,06.9,0674.7,31.0
2021-07-12T03:41:00Z,00000200,00000000,0001.42,0000.88,0000.46,0000.07,-000.08,0000.16,0000.04,-000.12,-000.02,18.8,24.9,10.0,06.9,0674.7,31.0
2021-07-12T03:42:00Z,00000200,00000000,0001.81,0000.65,0000.57,-000.30,0000.37,0000.05,0000.04,0000.09,0000.33,18.8,24.9,10.0,06.9,0674.7,31.0
2021-07-12T03:43:00Z,00000200,00000000,0001.36,0001.06,0000.52,-000.26,0000.45,0000.31,-000.02,0000.29,-000.02,18.8,24.9,10.1,07.0,0674.7,31.0
2021-07-12T03:44:00Z,00000200,00000000,0002.11,0000.82,0000.41,-000.05,0000.40,-000.08,0000.13,0000.02,0000.16,18.8,24.9,10.1,07.0,0674.7,31.0
2021-07-12T03:45:00Z,00000200,00000000,0001.49,0000.72,0000.49,0000.41,0000.27,0000.32,0000.28,0000.13,-000.30,18.8,24.9,10.0,06.9,0674.7,31.0
2021-07-12T03:46:00Z,00000200,00000000,0001.43,0000.59,0000.30,-000.09,-000.08,0000.08,0000.05,-000.08,0000.47,18.8,24.9,10.0,06.9,0674.7,31.0
2021-07-12T03:47:00Z,00000200,00000000,0002.41,0000.90,0000.49,0000.49,0000.21,0000.17,-000.02,-000.08,-000.36,18.8,24.9,10.0,06.9,0674.7,31.0
2021-07-12T03:48:00Z,00000200,00000000,0001.17,0000.96,0000.68,0000.01,0000.15,0000.02,0000.33,0000.35,0000.43,18.7,24.8,10.2,07.0,0674.7,31.0
2021-07-12T03:49:00Z,00000200,00000000,0001.66,0000.77,0000.29,0000.48,-000.12,0000.30,-000.05,0000.05,0000.21,18.7,24.8,10.3,07.1,0674.7,31.0
2021-07-12T03:50:00Z,00000200,00000000,0001.79,0000.82,0000.41,0000.01,0000.22,-000.30,0000.21,0000.15,-000.23,18.7,24.8,10.3,07.1,0674.7,31.0
2021-07-12T03:51:00Z,00000200,00000000,0002.07,0000.58,0000.12,0000.92,0000.12,0000.10,-000.16,-000.05,-000.14,18.7,24.8,10.2,07.0,0674.7,31.0
2021-07-12T03:52:00Z,00000200,00000000,0001.37,0000.93,0000.45,-000.08,0000.18,0000.06,0000.04,0000.29,0000.74,18.7,24.8,10.1,06.9,0674.7,31.0
2021-07-12T03:53:00Z,00000200,00000000,0002.15,0000.50,0000.50,0000.17,0000.11,0000.03,0000.35,0000.02,-000.14,18.7,24.8,10.2,07.0,0674.7,31.0
2021-07-12T03:54:00Z,00000200,00000000,0002.06,0000.76,0000.46,0000.29,0000.28,0000.01,0000.22,0000.08,0000.08,18.7,24.8,10.4,07.2,0674.7,31.0
2021-07-12T03:55:00Z,00000200,00000000,0001.66,0000.78,0000.31,0000.17,0000.12,0000.34,-000.23,-000.08,-000.20,18.7,24.8,10.5,07.2,0674.6,31.0
2021-07-12T03:56:00Z,00000200,00000000,0001.61,0000.58,0000.33,0000.38,0000.08,0000.48,-000.10,0000.18,0000.28,18.6,24.8,10.3,07.1,0674.7,31.0
2021-07-12T03:57:00Z,00000200,40000000,,,,,,,0000.24,-000.02,-000.19,18.7,24.8,10.5,07.2,0674.7,31.0
2021-07-12T03:58:00Z,00000200,60000000,,,,,,,0000.17,0000.04,-000.42,18.4,24.9,10.3,06.9,0673.6,31.0
2021-07-12T03:59:00Z,00000200,20000000,,,,,,,-000.26,-000.15,0000.16,18.4,25.0,10.2,06.8,0673.6,31.0
